Miscellaneous Local Product
Issued by NWS North Platte, NE

Home | Current Version | Previous Version | Text Only | Print | Product List | Glossary On
Versions: 1 2 3 4 5 6 7 8 9 10 11 12 13 14 15 16 17 18 19 20 21 22 23 24 25 26 27 28 29 30 31 32 33 34 35 36 37 38 39 40 41 42 43 44 45 46 47 48 49 50
000
AXUS43 KLBF 220710
MISLBF


WESTERN AND NORTH CENTRAL NEBRASKA HOURLY WEATHER ROUNDUP
NATIONAL WEATHER SERVICE NORTH PLATTE NE
200 AM CDT MON SEP 22 2014

***STATIONS NOT REPORTING VARIABLES SUCH AS SKY/WEATHER OR
PRESSURE ARE PROVIDED BY THE NEBRASKA DEPARTMENT OF
ROADS...RAWS...AND APRS NETWORKS...AND ARE NOT UNDER
NATIONAL WEATHER SERVICE QUALITY CONTROL***

...OBSERVATIONS IN AND NEAR THE EASTERN PANHANDLE OF NEBRASKA...

CITY           SKY/WX    TMP DP  RH WIND       PRES   REMARKS
PINE RIDGE     CLEAR     62  36  37 S18G28    30.22F
CHADRON        CLEAR     63  40  42 S8        30.20F
ALLIANCE       MOCLDY    52  41  66 S8        30.26F
SIDNEY         PTCLDY    57  40  52 S13       30.29F
WHITECLAY        N/A     51  36  57 E12         N/A
RUSHVILLE        N/A     49  35  56 S9          N/A
CRESCENT LAKE    N/A     57  39  51 S7          N/A
LISCO            N/A     59  39  47 E8          N/A
BIG SPRINGS      N/A     61  44  53 CALM        N/A
$$

...OBSERVATIONS IN NORTH CENTRAL NEBRASKA...

CITY           SKY/WX    TMP DP  RH WIND       PRES   REMARKS
VALENTINE      CLEAR     48  40  73 CALM      30.28S
THEDFORD       PTCLDY    48  41  75 SE3       30.31S
AINSWORTH      CLEAR     43  39  86 S9        30.29S
O`NEILL        CLEAR     49  45  87 S3        30.30S
ORD            CLEAR     43  40  89 CALM      30.30S
BROKEN BOW     CLEAR     42  39  89 CALM      30.31S
SPRINGVIEW       N/A     40  38  91 CALM        N/A
ROSE             N/A     52  45  76 E5          N/A
NEWPORT          N/A     42  40  95 S5          N/A
COMSTOCK         N/A     52  46  78 S7          N/A
CHAMBERS         N/A     46  41  84 CALM        N/A
$$

...OBSERVATIONS IN SOUTHWEST NEBRASKA AND FAR NORTHEAST COLORADO...

CITY           SKY/WX    TMP DP  RH WIND       PRES   REMARKS
WRAY           CLOUDY    64  41  42 SE8       30.30F
HOLYOKE        FAIR      61  41  48 SE10      30.30S
IMPERIAL       CLOUDY    59  41  51 S9        30.30S
OGALLALA       PTCLDY    60  44  55 S5        30.29S
NORTH PLATTE   CLOUDY    50  44  80 SE6       30.30F
MCCOOK         MOCLDY    56  44  64 E5        30.30F
LEXINGTON      PTCLDY    48  46  91 CALM      30.32R
PAXTON           N/A     58  45  62 CALM        N/A
SUTHERLAND       N/A     50  39  67 E5          N/A
BRADY            N/A     52  43  71 CALM        N/A
GOTHENBURG       N/A     52  41  67 CALM        N/A
CALLAWAY         N/A     46  43  90 SE5         N/A
$$

...SOME WEATHER OBSERVATIONS FROM AROUND THE REGION...

CITY           SKY/WX    TMP DP  RH WIND       PRES   REMARKS
DENVER         MOCLDY    59  50  72 S12       30.28F
LARAMIE        MOCLDY    49  40  71 S10       30.31F
CHEYENNE       MOCLDY    54  40  59 S10       30.30F
SCOTTSBLUFF    PTCLDY    57  43  59 E13       30.24F
RAPID CITY     MOCLDY    50  38  63 SE7       30.21F
PIERRE         CLEAR     49  41  74 SE6       30.22S
WINNER         FAIR      48  41  76 S8        30.26S
SIOUX FALLS    CLEAR     46  44  93 CALM      30.27R
OMAHA          CLEAR     52  50  93 CALM      30.29R
GRAND ISLAND   CLEAR     50  44  80 S3        30.32R
KANSAS CITY    CLEAR     56  49  77 N3        30.27R
WICHITA        PTCLDY    63  46  54 NE9       30.26S
HAYS           PTCLDY    57  39  51 NE5       30.30S
LIBERAL        PTCLDY    64  43  45 E7        30.32S
GOODLAND       CLOUDY    60  41  49 SE7       30.32S
$$



USA.gov is the U.S. government's official web portal to all federal, state and local government web resources and services.